ICEYE-X34 (58294 NORAD) Tracking and Keplerian Element Data

This shows tracking and keplerian element data for the satellite.

Feedback or suggestion? Click here.




ElementValue
Catalog58294
NameICEYE-X34
Epoch Orbit6895
Epoch Day34.67435621
Epoch Year2025
RAAN113.5962
Inclination97.4324
Eccentricity0.0008963
Argument of Perigee135.0688
Mean Anonmoly225.1278
Mean Motion15.26900797
Decay Rate0.00021688
L11 58294U 23174AQ 25034.67435621 .00021688 00000+0 82122-3 0 9995
L22 58294 97.4324 113.5962 0008963 135.0688 225.1278 15.26900797 68954



Live tracking and technical data element details for ICEYE-X34 (NORAD 58294). ICEYE-X34 can be tracked NOW for your location showing map with azimuth and elevation plus other details from your city location.







IsCatalogInMostPopularTable: catalog: 58294, numindb: 40
Update: records affected: 1



GetName: 58294 ICEYE-X34

Hit Count: updated at: Wed, 18 Jun 2025 04:48:36 GMT